Regional Weather Roundup
Issued by NWS Upton, NY

Current Version | Previous Version | Graphics & Text | Print | Product List | Glossary Off
Versions: 1 2 3 4 5 6 7 8 9 10 11 12 13 14 15 16 17 18 19 20 21 22 23 24 25 26 27 28 29 30 31 32 33 34 35 36 37 38 39 40 41 42 43 44 45 46 47 48 49 50

000
ASUS41 KOKX 041808
RWROKX

REGIONAL WEATHER ROUNDUP
NATIONAL WEATHER SERVICE NEW YORK NY
100 PM EST SUN DEC 04 2016

NOTE: "FAIR" INDICATES FEW OR NO CLOUDS BELOW 12,000 FEET WITH NO
SIGNIFICANT WEATHER AND/OR OBSTRUCTIONS TO VISIBILITY.

NYZ071-072-176-178-NJZ106-104-041900-
NEW YORK CITY METRO AREA

CITY           SKY/WX    TMP DP  RH WIND       PRES   REMARKS
Central Park   SUNNY     45  20  36 CALM      30.21F
Wall St Helipt CLEAR     50  27  40 VRB6      30.21S
Bronx Bot Gard   N/A     45  23  42 NW12      30.19S
LaGuardia APRT MOSUNNY   46  22  38 NW8       30.19F
Kennedy INTL   PTSUNNY   47  20  34 NW14      30.20F
Breezy Point     N/A     43 N/A N/A NW8G14      N/A
Newark/Liberty PTSUNNY   47  22  37 NW14      30.19F
Teterboro      SUNNY     45  21  38 NW12      30.19F
$$

NYZ177-179-078>081-041900-
LONG ISLAND NEW YORK

CITY           SKY/WX    TMP DP  RH WIND       PRES   REMARKS
Jones Beach      N/A     43 N/A N/A NW14        N/A
Matinecock PT    N/A     45 N/A N/A N12G17      N/A
Farmingdale    SUNNY     44  22  41 N10       30.19F
MacArthur/ISP  MOSUNNY   44  24  45 N9        30.18F
Shirley        SUNNY     42  23  46 NW14G22   30.19F
Westhampton    SUNNY     43  21  41 N14       30.19F
Southampton      N/A     43  28  56 N6        30.16S
Bridgehampton  NOT AVBL
East Hampton     N/A     40  21  45 N12G17    30.17F WCI  33
Montauk          N/A     41  22  46 NW9       30.18F
$$

NYZ052-065-067-041900-
HUDSON VALLEY

CITY           SKY/WX    TMP DP  RH WIND       PRES   REMARKS
White Plains   SUNNY     42  21  43 NW13      30.18F
Newburgh       SUNNY     41  25  52 VRB5      30.21F
Montgomery     SUNNY     44  24  45 NE7       30.18F
Poughkeepsie   SUNNY     40  22  48 N9        30.21F WCI  34
Albany         PTSUNNY   34  20  56 W5        30.26S WCI  30
$$

NJZ001-105-106-008-010-013-015-019>022-104-041900-
NEW JERSEY

CITY           SKY/WX    TMP DP  RH WIND       PRES   REMARKS
Newark/Liberty PTSUNNY   47  22  37 NW14      30.19F
Teterboro      SUNNY     45  21  38 NW12      30.19F
Caldwell       SUNNY     46  21  37 W13       30.20F
Somerville     SUNNY     46  21  37 N8        30.19F
Linden           N/A     46  22  38 N10       30.20S
Sussex         SUNNY     45  21  38 VRB7      30.19F
Andover          N/A     44  24  45 VRB5      30.19F
Trenton        MOSUNNY   46  24  42 NW6       30.20F
Millville      CLOUDY    48  29  47 NW10      30.21F
Atlantic City  SUNNY     49  26  41 NW8       30.21S
Wrightstown    NOT AVBL
Toms River     SUNNY     46  26  45 N8        30.20F
Belmar         SUNNY     48  24  39 NW9       30.21F
$$

PAZ047>061-062-071-041900-
EASTERN PENNSYLVANIA

CITY           SKY/WX    TMP DP  RH WIND       PRES   REMARKS
Philadelphia   PTSUNNY   47  24  40 NW10      30.22F
Allentown      MOSUNNY   46  24  42 VRB7      30.21F
Scranton       CLOUDY    42  24  49 W8        30.20F
$$

CTZ002-004>006-009-010-012-RIZ004-006-007-MAZ004-011-015-041900-
SOUTHERN NEW ENGLAND
 IN CT

CITY           SKY/WX    TMP DP  RH WIND       PRES   REMARKS
Bradley INTL   MOSUNNY   41  19  41 N10       30.19S
Hartford       SUNNY     42  21  43 N12       30.19F
Danbury        SUNNY     40  21  46 NW9       30.20  WCI  34
Wtrbury/Oxford MOSUNNY   37  18  44 MISG      30.18F
Bridgeport     SUNNY     45  21  38 NW9       30.19F
Meriden        SUNNY     43  20  39 NW13      30.18F
New Haven      MOSUNNY   42  21  43 NW9       30.18F
Chester          N/A     39  19  45 N12G18    30.15F WCI  32
Groton         SUNNY     45  22  40 N8        30.16F
Wilimantic     SUNNY     42  22  44 NW9       30.18F

 IN RI

CITY           SKY/WX    TMP DP  RH WIND       PRES   REMARKS
Providence     MOSUNNY   41  21  44 NW8       30.17F
Block Island   SUNNY     40  24  53 NW9       30.16F WCI  34
Westerly       SUNNY     43  20  39 NW6       30.17F
 IN MA

CITY           SKY/WX    TMP DP  RH WIND       PRES   REMARKS
Boston         SUNNY     40  20  44 NW10      30.16F WCI  33
Worcester      SUNNY     35  18  49 W10       30.13F WCI  27
Westfield      SUNNY     41  21  44 N8        30.18S
Provincetown   CLOUDY    39  24  55 NW13      30.15F WCI  31
Nantucket      MOSUNNY   40  24  53 N15       30.14S WCI  32
$$

ANZ330-335-338-340-345-350-353-355-041900-
COASTAL MARINE OBSERVATIONS


STATION/POSITION TIME  SKY/WX   TEMP    WIND        PRES    VSBY  WAVE
                                AIR SEA DIR/SP/G                  HT/PER
                 (UTC)          (F)     (DEG/KT/KT) (MB)    (MI)  (FT/S)
NY HARB ENTRANCE 1650            42 53  330/ 14/ 17 1022.7          2/ 4
20 S FIRE ISLAND 1650            40 53  340/ 10/ 16 1022.7          3/ 4
GREAT SOUTH BAY  1730            40 44                N/A
23 SSW MONTAUK P 1650            39 55  330/ 14/ 17 1022.5          3/ 4
15 E BARNEGAT LI 1730               54                N/A           3/ 5
HUDSON CANYON    1650            44 58              1022.5          4/ 6
KINGS POINT      1724            42 47              1022.3
EXECUTION ROCKS  1730            44     340/ 10/ 16   N/A
CENTRAL LI SOUND NOT AVBL
EASTERN LI SOUND NOT AVBL
ROBBINS REEF     1724            43     350/ 13/ 15 1022.8
$$


>>>>>>>>>>>>>>>>>>>>>>>>>>>> KEY <<<<<<<<<<<<<<<<<<<<<<<<<<<
>                                                          <
>     SKY/WX - Sky Condition/Present Weather               <
>     TMP    - Temperature in Fahrenheit                   <
>     DP     - Dew Point in Fahrenheit                     <
>     RH     - Relative Humidity in Percent                <
>     WIND   - Direction (from) and Speed in MPH           <
>     PRES   - Mean Sea Level Pressure (inches of Hg)      <
>     WCI    - Wind Chill Index                            <
>     VSB    - VISIBILITY IN MILES                         <
>     HX     - HEAT INDEX                                  <
>     TC     - TEMPERATURE IN CELSIUS                      <
>     VRB    - VARIABLE WIND DIRECTION                     <
>                                                          <
>>>>>>>>>>>>>>>>>>>>>>>>>>>> KEY <<<<<<<<<<<<<<<<<<<<<<<<<<<



USA.gov is the U.S. government's official web portal to all federal, state and local government web resources and services.